"startDT [UTC]","vpos","CH4 [ppm]","stdev(CH4) [ppm]","CO2 [ppm]","stdev(CO2) [ppm]","H2O_reported [%]","stdev(H2O_reported)","CavityPressure [torr]","CavityTemp [C]","OutletValve","CH4_dry [ppm]","CO2_dry [ppm]","DasTemp [C]","EtalonTemp [C]","WarmBoxTemp [C]","MPVPosition","T_ECpre [C]","T_EC1 [C]","T_EC2 [C]","p_inlet [hPa]","p_in [hPa]","p_out [hPa]","T_inlet [C]","RH_inlet [%]","dwpt_inlet [C]","T_vent [C]","RH_vent [%]","dwpt_vent [C]","flow_vent [l min-1]","flow_inlet [l min-1]","dwpt_sample [C]","T_room [C]"
2016-04-06 00:00:00,3.0,1.88486,0.02486,399.313,3.541,0.0234,0.0332,140.004,45.000,31352.81158,1.88809,399.627,29.189,45.072,45.000,0.00,0.08,-272.73,-272.78,3,519,-929,13.3,5.3,-25.0,13.5,5.3,-24.8,5.73,1.82,-21.3,20.2
2016-04-06 00:01:00,3.0,1.87632,0.00026,397.245,0.043,0.0057,0.0018,140.001,45.000,31356.37098,1.87643,397.272,29.189,45.072,45.000,0.00,0.08,-272.73,-272.79,3,519,-929,13.3,5.3,-24.9,13.5,5.3,-24.7,5.73,1.91,-21.3,20.3
2016-04-06 00:02:00,3.0,1.87622,0.00023,397.442,0.051,0.0066,0.0019,139.999,45.000,31355.81670,1.87635,397.469,29.190,45.072,45.000,0.00,0.08,-272.74,-272.79,3,519,-929,13.3,5.4,-24.7,13.5,5.4,-24.5,5.73,1.91,-21.3,20.3
2016-04-06 00:03:00,3.0,1.87632,0.00039,397.641,0.031,0.0060,0.0017,139.999,45.000,31355.96907,1.87640,397.667,29.198,45.072,45.000,0.00,0.08,-272.73,-272.79,3,519,-929,13.3,5.5,-24.6,13.5,5.5,-24.4,5.73,1.90,-21.3,20.3
2016-04-06 00:04:00,3.0,1.87638,0.00037,397.634,0.029,0.0052,0.0020,140.000,45.000,31355.83184,1.87649,397.660,29.192,45.073,45.000,0.00,0.08,-272.74,-272.78,3,519,-929,13.3,5.5,-24.4,13.6,5.5,-24.2,5.73,1.91,-21.3,20.3
2016-04-06 00:05:00,3.0,1.87636,0.00032,397.618,0.029,0.0041,0.0022,139.999,45.000,31355.77917,1.87646,397.637,29.202,45.073,45.000,0.00,0.08,-272.74,-272.80,3,519,-929,13.4,5.7,-24.1,13.6,5.6,-24.0,5.73,1.90,-21.3,20.3
2016-04-06 00:06:00,3.0,1.87631,0.00033,397.608,0.022,0.0034,0.0016,140.002,45.000,31356.48793,1.87637,397.625,29.189,45.073,45.000,0.00,0.08,-272.73,-272.79,3,519,-929,13.4,5.8,-23.8,13.6,5.8,-23.7,5.73,1.90,-21.3,20.3
2016-04-06 00:07:00,3.0,1.87660,0.00034,397.605,0.034,0.0028,0.0023,139.998,45.000,31356.68715,1.87663,397.619,29.194,45.073,45.000,0.00,0.08,-272.73,-272.78,3,519,-929,13.4,6.0,-23.5,13.6,5.9,-23.4,5.73,1.90,-21.3,20.4
2016-04-06 00:08:00,3.0,1.87644,0.00028,397.618,0.027,0.0023,0.0014,140.000,45.000,31356.45828,1.87650,397.629,29.217,45.073,45.000,0.00,0.08,-272.74,-272.79,2,519,-929,13.4,6.1,-23.3,13.7,6.1,-23.2,5.73,1.90,-21.3,20.4
2016-04-06 00:09:00,3.0,1.87641,0.00043,397.638,0.032,0.0018,0.0017,139.998,45.000,31356.42449,1.87640,397.645,29.240,45.072,45.000,0.00,0.08,-272.74,-272.79,2,519,-929,13.5,6.1,-23.2,13.7,6.1,-23.0,5.73,1.90,-21.3,20.4
2016-04-06 00:10:00,3.0,1.87641,0.00040,397.618,0.031,0.0014,0.0015,140.001,45.000,31359.02220,1.87648,397.625,29.240,45.072,45.000,0.00,0.08,-272.74,-272.79,2,519,-929,13.5,6.2,-22.9,13.7,6.2,-22.8,5.73,1.90,-21.3,20.4
2016-04-06 00:11:00,3.0,1.87649,0.00031,397.597,0.033,0.0010,0.0014,140.000,45.000,31360.85140,1.87649,397.603,29.229,45.072,45.000,0.00,0.08,-272.74,-272.79,2,519,-929,13.6,6.6,-22.3,13.8,6.5,-22.3,5.73,1.91,-21.3,20.5
2016-04-06 00:12:00,3.0,1.87636,0.00032,397.612,0.022,0.0014,0.0015,140.000,45.000,31361.73448,1.87640,397.617,29.235,45.072,45.000,0.00,0.08,-272.73,-272.79,2,519,-929,13.6,6.9,-21.7,13.8,6.8,-21.7,5.73,1.91,-21.3,20.5
2016-04-06 00:13:00,3.0,1.87647,0.00031,397.635,0.029,0.0004,0.0017,139.998,45.000,31362.49070,1.87648,397.637,29.233,45.072,45.000,0.00,0.08,-272.72,-272.78,2,519,-929,13.6,7.4,-20.9,13.8,7.3,-20.9,5.73,1.91,-21.2,20.5
2016-04-06 00:14:00,3.0,1.87656,0.00036,397.628,0.030,0.0006,0.0017,140.000,45.000,31361.91327,1.87653,397.630,29.229,45.072,45.000,0.00,0.08,-272.74,-272.79,2,519,-929,13.7,7.9,-20.1,13.9,7.8,-20.1,5.73,1.91,-21.2,20.5
2016-04-06 00:15:00,3.0,1.87657,0.00040,397.650,0.026,0.0002,0.0019,140.000,45.000,31361.48856,1.87660,397.650,29.203,45.072,45.000,0.00,0.08,-272.74,-272.79,2,520,-929,13.7,8.1,-19.8,13.9,8.0,-19.8,5.73,1.91,-21.2,20.6
2016-04-06 00:16:00,3.0,1.87638,0.00027,397.633,0.033,0.0011,0.0021,139.999,45.000,31363.30111,1.87638,397.639,29.191,45.073,45.000,0.00,0.08,-272.74,-272.79,2,519,-929,13.7,8.3,-19.6,13.9,8.2,-19.5,5.73,1.90,-21.2,20.6
2016-04-06 00:17:00,3.0,1.87639,0.00040,397.633,0.027,0.0002,0.0017,139.998,45.000,31363.77296,1.87644,397.633,29.196,45.073,45.000,0.00,0.08,-272.73,-272.79,2,519,-929,13.8,8.4,-19.4,14.0,8.4,-19.3,5.73,1.90,-21.2,20.6
2016-04-06 00:18:00,3.0,1.87641,0.00034,397.615,0.026,0.0011,0.0019,140.001,45.000,31365.80337,1.87641,397.621,29.204,45.073,45.000,0.00,0.08,-272.74,-272.79,2,520,-929,13.8,8.4,-19.3,14.0,8.4,-19.2,5.73,1.89,-21.2,20.6
2016-04-06 00:19:00,3.0,1.87644,0.00025,397.630,0.023,0.0007,0.0015,139.997,45.000,31364.01835,1.87644,397.632,29.220,45.073,45.000,0.00,0.08,-272.74,-272.79,2,520,-929,13.8,8.2,-19.5,14.0,8.3,-19.2,5.73,1.89,-21.2,20.6
2016-04-06 00:20:00,0.0,1.94612,0.02760,406.711,3.816,0.1227,0.0551,139.991,45.000,31286.46799,1.94575,407.115,29.245,45.073,45.000,0.00,0.08,-272.73,-272.79,0,508,-929,13.9,7.7,-20.3,14.0,7.9,-19.9,5.73,2.04,-21.2,20.7
2016-04-06 00:21:00,0.0,1.95622,0.00030,408.554,0.058,0.1561,0.0021,139.999,45.000,31291.67145,1.95926,409.322,29.242,45.072,45.000,0.00,0.08,-272.74,-272.79,-0,509,-929,13.9,7.5,-20.5,14.1,7.6,-20.2,5.73,2.03,-21.2,20.7
2016-04-06 00:22:00,0.0,1.95670,0.00038,408.405,0.070,0.1551,0.0015,139.998,45.000,31295.15890,1.95964,409.171,29.250,45.072,45.000,0.00,0.08,-272.74,-272.79,-1,509,-929,13.9,7.4,-20.6,14.1,7.5,-20.3,5.73,2.03,-21.2,20.7
2016-04-06 00:23:00,0.0,1.95768,0.00071,408.437,0.039,0.1520,0.0028,139.998,45.000,31298.21655,1.96056,409.185,29.250,45.072,45.000,0.00,0.08,-272.74,-272.79,-1,510,-929,14.0,7.3,-20.9,14.1,7.4,-20.6,5.73,2.03,-21.2,20.7
2016-04-06 00:24:00,0.0,1.95797,0.00044,408.349,0.052,0.1576,0.0028,140.000,45.000,31299.95175,1.96103,409.128,29.254,45.072,45.000,0.00,0.09,-272.73,-272.78,-0,510,-929,14.0,7.4,-20.6,14.2,7.4,-20.5,5.73,2.01,-21.2,20.7
2016-04-06 00:25:00,0.0,1.95759,0.00026,408.318,0.036,0.1640,0.0032,140.002,45.000,31303.28304,1.96078,409.125,29.272,45.072,45.000,0.00,0.08,-272.74,-272.79,-0,510,-929,14.0,7.7,-20.2,14.2,7.6,-20.2,5.73,1.99,-21.2,20.8
2016-04-06 00:26:00,0.0,1.95718,0.00049,408.307,0.032,0.1619,0.0059,139.999,45.000,31304.24201,1.96033,409.107,29.298,45.072,45.000,0.00,0.08,-272.74,-272.79,-0,511,-929,14.0,7.7,-20.2,14.2,7.8,-19.9,5.73,1.97,-21.1,20.8
2016-04-06 00:27:00,0.0,1.95774,0.00058,408.369,0.047,0.1393,0.0061,140.000,45.000,31305.98583,1.96040,409.056,29.310,45.072,45.000,0.00,0.09,-272.73,-272.78,-0,511,-929,14.0,6.8,-21.7,14.2,7.1,-20.9,5.73,1.96,-21.1,20.8
2016-04-06 00:28:00,0.0,1.95871,0.00066,408.507,0.076,0.1254,0.0043,139.998,45.000,31306.82075,1.96111,409.122,29.311,45.072,45.000,0.00,0.08,-272.74,-272.79,-0,511,-929,14.1,6.0,-23.0,14.2,6.4,-22.2,5.73,1.95,-21.1,20.8
2016-04-06 00:29:00,0.0,1.96007,0.00072,408.634,0.041,0.1203,0.0016,139.999,45.000,31309.39328,1.96235,409.225,29.312,45.072,45.000,0.00,0.08,-272.74,-272.79,-1,511,-929,14.1,5.7,-23.6,14.3,5.9,-23.1,5.73,1.96,-21.1,20.8
2016-04-06 00:30:00,0.0,1.96076,0.00047,408.657,0.034,0.1221,0.0018,140.001,45.000,31308.70648,1.96310,409.258,29.304,45.072,45.000,0.00,0.09,-272.73,-272.79,-1,511,-929,14.1,5.6,-23.7,14.3,5.8,-23.3,5.73,1.98,-21.1,20.8
2016-04-06 00:31:00,0.0,1.96035,0.00060,408.627,0.024,0.1216,0.0019,139.998,45.000,31310.81860,1.96273,409.226,29.312,45.072,45.000,0.00,0.09,-272.73,-272.79,-0,512,-929,14.1,5.7,-23.6,14.3,5.8,-23.3,5.73,2.00,-21.1,20.9
2016-04-06 00:32:00,0.0,1.95984,0.00041,408.551,0.030,0.1216,0.0015,140.002,45.000,31315.50673,1.96220,409.151,29.311,45.072,45.000,0.00,0.08,-272.74,-272.80,-0,512,-929,14.1,5.6,-23.6,14.3,5.8,-23.3,5.73,2.03,-21.1,20.9
2016-04-06 00:33:00,0.0,1.96065,0.00033,408.627,0.051,0.1219,0.0017,140.002,45.000,31317.20763,1.96300,409.224,29.312,45.072,45.000,0.00,0.08,-272.73,-272.78,-0,512,-929,14.1,5.6,-23.7,14.3,5.7,-23.4,5.73,2.04,-21.1,20.9
2016-04-06 00:34:00,0.0,1.95974,0.00047,408.612,0.047,0.1183,0.0017,140.000,45.000,31316.97326,1.96203,409.197,29.313,45.072,45.000,0.00,0.08,-272.74,-272.78,-0,512,-929,14.1,5.5,-23.9,14.3,5.6,-23.5,5.73,2.03,-21.1,20.9
2016-04-06 00:35:00,0.0,1.95947,0.00043,408.596,0.028,0.1186,0.0014,140.001,45.000,31316.91347,1.96176,409.178,29.313,45.072,45.000,0.00,0.08,-272.74,-272.79,-0,512,-929,14.1,5.5,-24.0,14.3,5.6,-23.7,5.73,2.02,-21.1,20.9
2016-04-06 00:36:00,0.0,1.95928,0.00055,408.586,0.029,0.1231,0.0026,139.997,45.000,31317.41219,1.96166,409.192,29.316,45.072,45.000,0.00,0.08,-272.74,-272.79,-0,512,-929,14.0,5.7,-23.5,14.3,5.7,-23.4,5.73,2.00,-21.1,20.9
2016-04-06 00:37:00,0.0,1.95996,0.00033,408.577,0.042,0.1299,0.0022,140.000,45.000,31316.35493,1.96247,409.215,29.313,45.073,45.000,0.00,0.09,-272.73,-272.78,-0,512,-929,14.0,6.0,-23.0,14.3,5.9,-22.9,5.73,1.99,-21.1,20.9
2016-04-06 00:38:00,0.0,1.95965,0.00038,408.548,0.031,0.1341,0.0018,139.998,45.000,31317.49659,1.96222,409.209,29.314,45.073,45.000,0.00,0.08,-272.73,-272.79,-0,512,-929,14.0,6.2,-22.6,14.3,6.2,-22.5,5.73,1.98,-21.1,20.9
2016-04-06 00:39:00,0.0,1.95981,0.00035,408.540,0.037,0.1330,0.0029,139.999,45.000,31319.31932,1.96240,409.195,29.317,45.073,45.000,0.00,0.08,-272.74,-272.80,0,512,-929,14.0,6.3,-22.5,14.3,6.3,-22.3,5.73,1.97,-21.1,20.9
2016-04-06 00:40:00,0.0,1.95928,0.00027,408.507,0.048,0.1268,0.0030,140.000,45.000,31320.10131,1.96174,409.134,29.338,45.073,45.000,0.00,0.08,-272.73,-272.79,0,513,-929,14.0,6.0,-23.0,14.3,6.1,-22.6,5.73,1.96,-21.0,20.9
2016-04-06 00:41:00,0.0,1.95920,0.00051,408.531,0.035,0.1207,0.0026,140.000,45.000,31322.41827,1.96156,409.126,29.347,45.073,45.000,0.00,0.08,-272.73,-272.78,0,513,-929,14.0,5.7,-23.6,14.3,5.9,-23.1,5.73,1.96,-21.0,20.9
2016-04-06 00:42:00,0.0,1.95910,0.00034,408.503,0.030,0.1150,0.0026,140.001,45.000,31323.54434,1.96133,409.069,29.358,45.072,45.000,0.00,0.08,-272.74,-272.79,0,513,-929,14.0,5.4,-24.1,14.3,5.6,-23.6,5.73,1.96,-21.0,20.9
2016-04-06 00:43:00,0.0,1.95888,0.00059,408.520,0.042,0.1098,0.0021,140.000,45.000,31325.31401,1.96097,409.061,29.356,45.072,45.000,0.00,0.08,-272.74,-272.79,-0,513,-929,14.0,5.1,-24.7,14.3,5.3,-24.2,5.73,1.97,-21.0,21.0
2016-04-06 00:44:00,0.0,1.95844,0.00035,408.538,0.035,0.1040,0.0023,139.999,45.000,31323.26671,1.96050,409.048,29.367,45.072,45.000,0.00,0.09,-272.73,-272.79,-0,513,-929,14.0,4.9,-25.2,14.3,5.1,-24.7,5.73,2.00,-21.0,21.0
2016-04-06 00:45:00,0.0,1.95877,0.00030,408.562,0.034,0.1013,0.0023,140.000,45.000,31323.52955,1.96069,409.061,29.345,45.072,45.000,0.00,0.08,-272.73,-272.80,-0,513,-930,14.0,4.7,-25.6,14.3,4.9,-25.1,5.73,2.01,-21.0,21.0
2016-04-06 00:46:00,0.0,1.95881,0.00043,408.543,0.038,0.0981,0.0019,140.002,45.000,31326.06301,1.96072,409.027,29.370,45.072,45.000,0.00,0.08,-272.75,-272.79,0,513,-930,14.0,4.6,-25.9,14.3,4.7,-25.5,5.73,2.03,-21.0,21.0
2016-04-06 00:47:00,0.0,1.95864,0.00029,408.599,0.045,0.0947,0.0014,140.000,45.000,31326.68642,1.96045,409.064,29.374,45.072,45.000,0.00,0.09,-272.73,-272.78,0,513,-930,14.0,4.5,-26.2,14.3,4.6,-25.7,5.73,2.04,-21.0,21.0
2016-04-06 00:48:00,0.0,1.95890,0.00029,408.612,0.032,0.0933,0.0021,140.001,45.000,31325.18551,1.96071,409.071,29.375,45.072,45.000,0.00,0.08,-272.73,-272.79,1,513,-930,14.0,4.4,-26.4,14.3,4.5,-25.9,5.73,2.02,-21.0,21.0
2016-04-06 00:49:00,0.0,1.95882,0.00032,408.616,0.029,0.0918,0.0015,140.002,45.000,31325.68317,1.96060,409.068,29.378,45.072,45.000,0.00,0.08,-272.74,-272.79,0,513,-930,14.0,4.4,-26.5,14.3,4.5,-26.1,5.73,2.01,-21.0,20.9
2016-04-06 00:50:00,0.0,1.95937,0.00033,408.625,0.017,0.0922,0.0016,140.003,45.000,31326.84151,1.96114,409.077,29.377,45.072,45.000,0.00,0.08,-272.74,-272.78,0,513,-930,14.0,4.3,-26.7,14.3,4.4,-26.2,5.73,1.98,-21.0,20.9
2016-04-06 00:51:00,0.0,1.95910,0.00037,408.612,0.028,0.0913,0.0017,139.998,45.000,31326.52829,1.96087,409.062,29.387,45.072,45.000,0.00,0.09,-272.72,-272.79,-0,513,-930,14.0,4.3,-26.7,14.3,4.4,-26.3,5.73,1.97,-21.0,21.0
2016-04-06 00:52:00,0.0,1.95893,0.00037,408.604,0.024,0.0921,0.0025,140.003,45.000,31328.00533,1.96070,409.057,29.430,45.072,45.000,0.00,0.08,-272.74,-272.80,0,513,-930,14.0,4.3,-26.7,14.3,4.4,-26.3,5.73,1.96,-21.0,21.0
2016-04-06 00:53:00,0.0,1.95846,0.00027,408.589,0.030,0.0941,0.0018,140.000,45.000,31328.52036,1.96030,409.052,29.437,45.072,45.000,0.00,0.08,-272.75,-272.79,0,513,-930,13.9,4.4,-26.5,14.3,4.4,-26.1,5.73,1.96,-21.0,20.9
2016-04-06 00:54:00,0.0,1.95834,0.00028,408.590,0.037,0.0972,0.0019,139.999,45.000,31327.30713,1.96024,409.067,29.437,45.072,45.000,0.00,0.09,-272.73,-272.78,0,513,-930,13.9,4.6,-26.1,14.3,4.5,-25.9,5.73,1.97,-21.0,20.9
2016-04-06 00:55:00,0.0,1.95846,0.00038,408.610,0.036,0.1000,0.0016,140.000,45.000,31328.08989,1.96036,409.102,29.437,45.072,45.000,0.00,0.08,-272.74,-272.79,1,513,-930,13.9,4.7,-25.8,14.3,4.7,-25.6,5.73,1.99,-21.0,21.0
2016-04-06 00:56:00,0.0,1.95827,0.00045,408.617,0.032,0.1044,0.0023,140.003,45.000,31329.69485,1.96033,409.130,29.438,45.072,45.000,0.00,0.08,-272.73,-272.80,0,513,-930,13.9,4.9,-25.4,14.2,4.8,-25.3,5.73,1.98,-21.0,21.0
2016-04-06 00:57:00,0.0,1.95805,0.00029,408.600,0.037,0.1080,0.0019,140.001,45.000,31330.48582,1.96010,409.131,29.439,45.072,45.000,0.00,0.09,-272.73,-272.79,0,513,-930,13.9,5.0,-25.1,14.2,5.0,-24.9,5.73,1.99,-21.0,20.9
2016-04-06 00:58:00,0.0,1.95801,0.00033,408.641,0.038,0.1100,0.0017,140.002,45.000,31330.61811,1.96012,409.183,29.441,45.072,45.000,0.00,0.08,-272.74,-272.78,0,513,-930,13.9,5.1,-24.8,14.2,5.1,-24.7,5.73,2.00,-21.0,20.9
2016-04-06 00:59:00,0.0,1.95797,0.00043,408.621,0.039,0.1105,0.0019,140.001,45.000,31331.72818,1.96015,409.164,29.442,45.072,45.000,0.00,0.08,-272.74,-272.80,0,513,-930,13.9,5.2,-24.7,14.2,5.2,-24.5,5.73,2.01,-21.0,20.9
2016-04-06 01:00:00,0.0,1.95784,0.00031,408.602,0.023,0.1132,0.0018,140.003,45.000,31329.63769,1.96000,409.159,29.449,45.072,45.000,0.00,0.08,-272.74,-272.79,-0,513,-930,13.9,5.3,-24.5,14.2,5.2,-24.4,5.73,2.02,-21.0,20.9
2016-04-06 01:01:00,0.0,1.95815,0.00040,408.611,0.053,0.1146,0.0017,140.000,45.000,31326.29652,1.96034,409.173,29.455,45.072,45.000,0.00,0.08,-272.74,-272.78,0,513,-930,13.8,5.4,-24.4,14.2,5.3,-24.2,5.73,2.01,-21.0,20.9
2016-04-06 01:02:00,0.0,1.95854,0.00039,408.627,0.035,0.1131,0.0019,140.000,45.000,31325.27415,1.96073,409.186,29.460,45.072,45.000,0.00,0.08,-272.74,-272.79,0,513,-930,13.9,5.3,-24.5,14.2,5.3,-24.2,5.73,2.01,-21.0,20.8
2016-04-06 01:03:00,0.0,1.95851,0.00029,408.608,0.049,0.1110,0.0016,140.001,45.000,31325.81025,1.96065,409.156,29.455,45.073,45.000,0.00,0.08,-272.74,-272.79,0,513,-930,13.9,5.2,-24.7,14.2,5.3,-24.4,5.73,2.02,-21.0,20.9
2016-04-06 01:04:00,0.0,1.95875,0.00034,408.593,0.036,0.1073,0.0015,139.999,45.000,31326.62738,1.96081,409.121,29.462,45.072,45.000,0.00,0.08,-272.74,-272.79,1,513,-930,13.9,5.1,-25.0,14.2,5.1,-24.6,5.73,2.02,-21.0,20.9
2016-04-06 01:05:00,0.0,1.95801,0.00035,408.568,0.034,0.1051,0.0019,140.002,45.000,31328.81918,1.96005,409.086,29.458,45.072,45.000,0.00,0.08,-272.74,-272.79,1,513,-930,13.9,5.0,-25.2,14.2,5.0,-24.9,5.73,2.01,-21.0,20.9
2016-04-06 01:06:00,0.0,1.95798,0.00033,408.595,0.047,0.1041,0.0016,139.998,45.000,31329.05388,1.96003,409.106,29.483,45.072,45.000,0.00,0.08,-272.74,-272.79,0,513,-930,13.9,4.9,-25.4,14.2,4.9,-25.1,5.73,1.99,-21.0,20.9
2016-04-06 01:07:00,0.0,1.95776,0.00037,408.630,0.043,0.1031,0.0015,140.001,45.000,31330.71022,1.95975,409.137,29.475,45.072,45.000,0.00,0.08,-272.73,-272.79,0,513,-930,13.9,4.8,-25.5,14.2,4.9,-25.2,5.73,1.97,-20.9,20.9
2016-04-06 01:08:00,0.0,1.95824,0.00040,408.584,0.029,0.1018,0.0019,140.000,45.000,31330.21618,1.96020,409.086,29.498,45.072,45.000,0.00,0.08,-272.73,-272.79,0,513,-930,13.9,4.8,-25.6,14.2,4.8,-25.3,5.73,1.96,-20.9,20.9
2016-04-06 01:09:00,0.0,1.95802,0.00030,408.578,0.030,0.1024,0.0015,140.001,45.000,31331.25085,1.95999,409.082,29.499,45.072,45.000,0.00,0.08,-272.74,-272.79,0,513,-930,13.9,4.8,-25.6,14.2,4.8,-25.3,5.73,1.96,-20.9,20.9
2016-04-06 01:10:00,0.0,1.95815,0.00035,408.563,0.031,0.1028,0.0015,139.999,45.000,31331.70286,1.96013,409.069,29.500,45.072,45.000,0.00,0.08,-272.73,-272.79,0,513,-930,13.9,4.8,-25.5,14.2,4.8,-25.3,5.73,1.96,-20.9,20.9
2016-04-06 01:11:00,0.0,1.95809,0.00033,408.566,0.026,0.1030,0.0019,140.000,45.000,31331.45400,1.96007,409.072,29.503,45.072,45.000,0.00,0.09,-272.73,-272.80,1,513,-930,14.0,4.8,-25.5,14.2,4.8,-25.3,5.73,1.98,-20.9,20.9
2016-04-06 01:12:00,0.0,1.95806,0.00040,408.526,0.036,0.1039,0.0017,140.000,45.000,31333.73920,1.96011,409.038,29.501,45.072,45.000,0.00,0.08,-272.74,-272.80,1,513,-930,14.0,4.8,-25.4,14.2,4.9,-25.2,5.73,1.99,-20.9,20.9
2016-04-06 01:13:00,0.0,1.95825,0.00026,408.554,0.031,0.1042,0.0018,140.002,45.000,31333.00713,1.96023,409.067,29.512,45.072,45.000,0.00,0.08,-272.74,-272.79,0,513,-930,13.9,4.9,-25.4,14.2,4.9,-25.2,5.73,2.00,-20.9,20.9
2016-04-06 01:14:00,0.0,1.95762,0.00035,408.541,0.050,0.1055,0.0023,140.000,45.000,31333.28290,1.95966,409.060,29.528,45.072,45.000,0.00,0.08,-272.73,-272.78,0,513,-930,13.9,4.9,-25.3,14.2,4.9,-25.1,5.73,2.01,-20.9,20.9
2016-04-06 01:15:00,0.0,1.95746,0.00037,408.542,0.035,0.1068,0.0016,140.003,45.000,31336.08137,1.95954,409.065,29.549,45.072,45.000,0.00,0.08,-272.74,-272.78,0,513,-930,13.9,5.0,-25.1,14.2,5.0,-25.0,5.73,2.02,-20.9,20.9
2016-04-06 01:16:00,0.0,1.95789,0.00036,408.610,0.032,0.1070,0.0015,140.001,45.000,31334.28296,1.95990,409.137,29.535,45.072,45.000,0.00,0.08,-272.75,-272.79,0,513,-930,13.9,5.0,-25.1,14.2,5.0,-24.9,5.73,2.02,-20.9,20.9
2016-04-06 01:17:00,0.0,1.95781,0.00026,408.611,0.031,0.1084,0.0015,140.003,45.000,31335.50578,1.95995,409.143,29.520,45.072,45.000,0.00,0.08,-272.74,-272.79,0,513,-930,13.9,5.0,-25.0,14.2,5.1,-24.8,5.73,2.02,-20.9,20.8
2016-04-06 01:18:00,0.0,1.95815,0.00040,408.661,0.024,0.1085,0.0019,140.002,45.000,31334.55074,1.96021,409.196,29.537,45.072,45.000,0.00,0.09,-272.73,-272.79,1,513,-930,13.9,5.1,-25.0,14.2,5.1,-24.8,5.73,2.02,-20.9,20.8
2016-04-06 01:19:00,0.0,1.95799,0.00049,408.593,0.061,0.1095,0.0018,139.999,45.000,31333.75297,1.96013,409.134,29.556,45.072,45.000,0.00,0.08,-272.74,-272.79,1,513,-930,13.9,5.1,-24.9,14.2,5.1,-24.7,5.73,2.01,-20.9,20.9
2016-04-06 01:20:00,0.0,1.95803,0.00061,408.546,0.035,0.1103,0.0018,140.000,45.000,31335.61659,1.96014,409.087,29.563,45.072,45.000,0.00,0.08,-272.73,-272.78,1,513,-930,13.9,5.2,-24.8,14.2,5.1,-24.6,5.73,2.00,-20.9,20.9
2016-04-06 01:21:00,0.0,1.95806,0.00054,408.575,0.040,0.1127,0.0012,140.003,45.000,31338.01768,1.96022,409.129,29.563,45.072,45.000,0.00,0.08,-272.73,-272.79,1,513,-930,13.9,5.3,-24.6,14.2,5.2,-24.4,5.73,1.99,-20.9,20.9
2016-04-06 01:22:00,0.0,1.95795,0.00045,408.542,0.047,0.1156,0.0015,140.000,45.000,31337.05506,1.96022,409.109,29.564,45.072,45.000,0.00,0.08,-272.74,-272.79,0,513,-930,13.9,5.4,-24.3,14.2,5.3,-24.2,5.73,1.97,-20.8,20.9
2016-04-06 01:23:00,0.0,1.95759,0.00039,408.566,0.043,0.1172,0.0017,140.000,45.000,31337.15244,1.95984,409.144,29.564,45.072,45.000,0.00,0.08,-272.74,-272.79,0,513,-930,13.9,5.5,-24.1,14.2,5.4,-23.9,5.73,1.95,-20.9,20.9
2016-04-06 01:24:00,0.0,1.95749,0.00034,408.545,0.038,0.1179,0.0014,140.001,45.000,31338.18100,1.95977,409.125,29.572,45.072,45.000,0.00,0.09,-272.73,-272.79,0,513,-930,13.9,5.5,-24.0,14.2,5.5,-23.9,5.73,1.95,-20.9,20.8
2016-04-06 01:25:00,0.0,1.95751,0.00037,408.518,0.032,0.1168,0.0018,140.002,45.000,31338.59867,1.95977,409.094,29.570,45.072,45.000,0.00,0.09,-272.74,-272.80,0,513,-930,14.0,5.5,-24.1,14.3,5.5,-23.8,5.73,1.96,-20.9,20.9
2016-04-06 01:26:00,0.0,1.95770,0.00045,408.529,0.037,0.1186,0.0022,139.999,45.000,31338.63463,1.95998,409.112,29.574,45.072,45.000,0.00,0.08,-272.74,-272.80,1,513,-930,13.9,5.5,-24.0,14.3,5.5,-23.8,5.73,1.98,-20.9,20.8
2016-04-06 01:27:00,0.0,1.95802,0.00046,408.545,0.033,0.1186,0.0012,139.998,45.000,31337.76849,1.96026,409.130,29.590,45.072,45.000,0.00,0.08,-272.73,-272.79,1,513,-930,14.0,5.5,-24.0,14.3,5.5,-23.8,5.73,2.00,-20.9,20.9
2016-04-06 01:28:00,0.0,1.95849,0.00047,408.581,0.116,0.1173,0.0017,140.002,45.000,31338.62665,1.96073,409.153,29.590,45.072,45.000,0.00,0.08,-272.73,-272.78,1,513,-930,13.9,5.5,-24.1,14.3,5.5,-23.8,5.73,2.02,-20.8,20.9
2016-04-06 01:29:00,0.0,1.95832,0.00043,409.008,0.070,0.1184,0.0022,140.001,45.000,31338.70800,1.96063,409.589,29.565,45.072,45.000,0.00,0.08,-272.74,-272.79,0,513,-930,14.0,5.5,-23.9,14.3,5.5,-23.8,5.73,2.03,-20.8,20.9
2016-04-06 01:30:00,0.0,1.95882,0.00058,409.152,0.112,0.1263,0.0032,139.998,45.000,31339.63450,1.96122,409.770,29.569,45.072,45.000,0.00,0.08,-272.75,-272.79,0,513,-930,14.0,5.9,-23.3,14.3,5.7,-23.3,5.73,2.03,-20.9,20.9
2016-04-06 01:31:00,0.0,1.95964,0.00033,409.437,0.086,0.1302,0.0013,140.000,45.000,31338.37840,1.96215,410.076,29.582,45.072,45.000,0.00,0.09,-272.73,-272.78,0,513,-930,14.0,6.1,-22.8,14.3,6.0,-22.8,5.73,2.02,-20.8,20.9
2016-04-06 01:32:00,0.0,1.95940,0.00049,409.542,0.036,0.1343,0.0030,140.001,45.000,31340.73002,1.96201,410.204,29.606,45.072,45.000,0.00,0.08,-272.74,-272.79,0,513,-930,14.0,6.2,-22.6,14.3,6.2,-22.5,5.73,2.01,-20.8,20.9
2016-04-06 01:33:00,0.0,1.95911,0.00041,409.524,0.076,0.1404,0.0026,139.999,45.000,31339.10421,1.96180,410.219,29.600,45.072,45.000,0.00,0.08,-272.74,-272.80,0,513,-930,14.0,6.5,-22.1,14.3,6.4,-22.1,5.73,1.99,-20.8,20.9
2016-04-06 01:34:00,0.0,1.95911,0.00047,409.247,0.135,0.1550,0.0043,140.002,45.000,31341.58773,1.96214,410.008,29.606,45.072,45.000,0.00,0.08,-272.73,-272.79,0,513,-930,14.0,7.2,-21.0,14.3,6.9,-21.3,5.73,1.99,-20.8,20.9
2016-04-06 01:35:00,0.0,1.95865,0.00043,409.390,0.214,0.1641,0.0032,140.000,45.000,31342.54832,1.96183,410.201,29.602,45.072,45.000,0.00,0.08,-272.74,-272.79,0,513,-930,13.9,7.7,-20.2,14.3,7.4,-20.4,5.73,1.99,-20.8,20.9
2016-04-06 01:36:00,0.0,1.95877,0.00035,409.248,0.194,0.1738,0.0043,140.001,45.000,31343.01571,1.96212,410.110,29.620,45.072,45.000,0.00,0.08,-272.75,-272.79,0,513,-930,13.9,8.1,-19.6,14.3,7.9,-19.8,5.73,1.98,-20.8,20.9
2016-04-06 01:37:00,0.0,1.95825,0.00036,408.980,0.072,0.1913,0.0031,139.998,45.000,31341.95897,1.96196,409.926,29.625,45.072,45.000,0.00,0.08,-272.75,-272.80,0,513,-930,13.9,8.9,-18.6,14.2,8.5,-18.9,5.73,1.98,-20.8,21.0
2016-04-06 01:38:00,0.0,1.95853,0.00037,409.064,0.072,0.1941,0.0028,140.001,45.000,31341.56605,1.96227,410.020,29.625,45.072,45.000,0.00,0.08,-272.73,-272.79,0,513,-930,13.9,9.1,-18.3,14.2,8.9,-18.3,5.73,1.98,-20.8,21.0
2016-04-06 01:39:00,0.0,1.95905,0.00042,409.146,0.064,0.1871,0.0023,140.000,45.000,31339.81657,1.96266,410.071,29.622,45.072,45.000,0.00,0.08,-272.75,-272.81,0,513,-930,13.9,8.9,-18.6,14.2,8.8,-18.5,5.73,1.98,-20.8,21.0
2016-04-06 01:40:00,0.0,1.95887,0.00039,409.136,0.043,0.1866,0.0042,140.001,45.000,31341.03258,1.96251,410.059,29.626,45.072,45.000,0.00,0.08,-272.74,-272.80,-0,513,-930,13.9,8.8,-18.7,14.2,8.8,-18.5,5.73,1.99,-20.8,21.0
2016-04-06 01:41:00,0.0,1.95870,0.00033,409.287,0.058,0.1724,0.0037,140.002,45.000,31342.36019,1.96203,410.138,29.626,45.072,45.000,0.00,0.08,-272.73,-272.78,0,513,-930,13.9,8.2,-19.5,14.2,8.3,-19.1,5.73,1.98,-20.8,21.0
2016-04-06 01:42:00,0.0,1.95898,0.00034,409.291,0.040,0.1631,0.0019,140.002,45.000,31343.35666,1.96214,410.098,29.626,45.072,45.000,0.00,0.08,-272.74,-272.79,0,513,-930,13.9,7.8,-20.2,14.2,7.9,-19.8,5.73,1.98,-20.8,20.9
2016-04-06 01:43:00,0.0,1.95888,0.00032,409.147,0.081,0.1728,0.0038,140.000,45.000,31344.19411,1.96224,410.003,29.634,45.073,45.000,0.00,0.08,-272.74,-272.79,0,513,-930,14.0,8.0,-19.8,14.2,7.8,-19.8,5.73,1.98,-20.8,20.9
2016-04-06 01:44:00,0.0,1.95880,0.00036,408.972,0.040,0.1789,0.0020,140.001,45.000,31343.91126,1.96227,409.856,29.675,45.072,45.000,0.00,0.08,-272.73,-272.79,0,513,-930,14.0,8.3,-19.4,14.2,8.2,-19.3,5.73,1.98,-20.8,20.9
2016-04-06 01:45:00,0.0,1.95865,0.00037,408.913,0.038,0.1778,0.0022,139.999,45.000,31344.86441,1.96206,409.792,29.688,45.072,45.000,0.00,0.08,-272.73,-272.79,0,513,-930,14.0,8.3,-19.3,14.2,8.3,-19.2,5.73,1.99,-20.8,20.9